World > North America > United States > New York
Hourly Weather in Oswego, New YorkOswego, New York Hourly Weather

Oswego, NY Hourly Weather

Hourly Weather Oswego, New YorkHourly Weather in Oswego, NY
Lat: 43.46N, Lon: 76.5W  ICAO: KFZY
Web Search
Oswego Weather Warning NWS WEATHER ALERT FOR THE OSWEGO, NY AREA - WINTER WEATHER ADVISORY Issued: 248 PM EST Mon Dec 6 2021 Oswego Weather Warning  

Ads allow us to feed your daily addiction for the world's greatest weather information. We're determined to offer quality sponsors, in the least annoying way possible.

Feedback

Oswego Hourly Weather

36 Hour Weather Scroll   °F Click to change Oswego hourly weather to Imperial units.Click to change Oswego hourly weather to Metric units. °C
Currently, Rain, temperature is 44°F7°C, dew point 41°F5°C, humidity 89%. Wind direction is W at 23 mph37 km/h with visibility of 2.50 mi4 km. Barometric pressure is 29.56 in1001 mb.

Dec 06
4:00 PM

Dec 06
5:00 PM

Dec 06
6:00 PM

Dec 06
7:00 PM

Dec 06
8:00 PM

Dec 06
9:00 PM

Dec 06
10:00 PM

Dec 06
11:00 PM

Dec 07
MIDNIGHT

Dec 07
1:00 AM

Dec 07
2:00 AM

Dec 07
3:00 AM

Dec 07
4:00 AM

Dec 07
5:00 AM

Dec 07
6:00 AM

Dec 07
7:00 AM

Dec 07
8:00 AM

Dec 07
9:00 AM

Dec 07
10:00 AM

Dec 07
11:00 AM

Dec 07
NOON

Dec 07
1:00 PM

Dec 07
2:00 PM

Dec 07
3:00 PM

Dec 07
4:00 PM

Dec 07
5:00 PM

Dec 07
6:00 PM

Dec 07
7:00 PM

Dec 07
8:00 PM

Dec 07
9:00 PM

Dec 07
10:00 PM

Dec 07
11:00 PM

Dec 08
MIDNIGHT

Dec 08
1:00 AM

Dec 08
2:00 AM

Dec 08
3:00 AM
Cloudy Cloudy Cloudy Cloudy Cloudy Cloudy Cloudy Cloudy Cloudy Cloudy Cloudy Cloudy Cloudy Cloudy Cloudy Cloudy Cloudy Cloudy Cloudy Cloudy Cloudy Cloudy Cloudy Cloudy Cloudy Cloudy Cloudy Cloudy Cloudy Cloudy Cloudy Cloudy Cloudy Cloudy Cloudy Cloudy
Cloudy Cloudy Cloudy Cloudy Cloudy Cloudy Cloudy Cloudy Cloudy Cloudy Cloudy Cloudy Cloudy Cloudy Cloudy Cloudy Cloudy Cloudy Cloudy Cloudy Cloudy Cloudy Cloudy Cloudy Cloudy Cloudy Cloudy Cloudy Cloudy Cloudy Cloudy Cloudy Cloudy Cloudy Cloudy Cloudy
48°F9°C 47°F8°C 45°F7°C 44°F7°C 42°F6°C 39°F4°C 37°F3°C 36°F2°C 34°F1°C 33°F1°C 32°F0°C 32°F0°C 31°F-1°C 30°F-1°C 30°F-1°C 29°F-2°C 29°F-2°C 29°F-2°C 29°F-2°C 29°F-2°C 30°F-1°C 30°F-1°C 30°F-1°C 30°F-1°C 30°F-1°C 28°F-2°C 27°F-3°C 25°F-4°C 24°F-4°C 24°F-4°C 23°F-5°C 23°F-5°C 23°F-5°C 23°F-5°C 23°F-5°C 23°F-5°C
Rain Rain Snow Snow Snow Snow Snow Snow Snow Snow Snow Snow Snow Snow Snow Snow - - - - - - - - - - - - - - - - - - Snow Snow
96% 96% 96% 96% 29% 29% 29% 29% 29% 29% 26% 26% 26% 26% 26% 26% 13% 13% 13% 13% 13% 13% 13% 13% 13% 13% 13% 13% 13% 13% 13% 13% 13% 13% 45% 45%
37°F3°C 35°F2°C 33°F1°C 31°F-1°C 29°F-2°C 26°F-3°C 24°F-4°C 23°F-5°C 22°F-6°C 21°F-6°C 20°F-7°C 20°F-7°C 19°F-7°C 19°F-7°C 18°F-8°C 18°F-8°C 18°F-8°C 17°F-8°C 17°F-8°C 17°F-8°C 17°F-8°C 17°F-8°C 17°F-8°C 17°F-8°C 17°F-8°C 17°F-8°C 16°F-9°C 16°F-9°C 16°F-9°C 15°F-9°C 15°F-9°C 16°F-9°C 16°F-9°C 17°F-8°C 17°F-8°C 18°F-8°C
66% 63% 63% 60% 60% 59% 59% 59% 61% 61% 61% 61% 61% 63% 60% 63% 63% 60% 60% 60% 58% 58% 58% 58% 58% 63% 63% 68% 71% 68% 71% 74% 74% 77% 77% 81%
SSW SSW SSW SSW SSW SSW W W W W W W W W W W W W W W SSW SSW SSW W W W SSW SSW SSW SW SSE SSE S S S S
19 mph 19 mph 23 mph 23 mph 23 mph 24 mph 24 mph 24 mph 23 mph 23 mph 23 mph 17 mph 17 mph 17 mph 11 mph 11 mph 11 mph 10 mph 10 mph 10 mph 9 mph 9 mph 9 mph 8 mph 8 mph 8 mph 3 mph 3 mph 3 mph 1 mph 1 mph 1 mph 2 mph 2 mph 2 mph 2 mph
5 mi8 km 6 mi10 km 6 mi10 km 10 mi16 km 10 mi16 km 10 mi16 km 10 mi16 km 10 mi16 km 10 mi16 km 10 mi16 km 10 mi16 km 10 mi16 km 10 mi16 km 10 mi16 km 10 mi16 km 10 mi16 km 10 mi16 km 10 mi16 km 10 mi16 km 10 mi16 km 10 mi16 km 10 mi16 km 10 mi16 km 10 mi16 km 10 mi16 km 10 mi16 km 10 mi16 km 10 mi16 km 10 mi16 km 10 mi16 km 10 mi16 km 10 mi16 km 10 mi16 km 10 mi16 km 6 mi10 km 5 mi8 km
Hour (EST)
Weather
Clouds
Temperature
Precip. Type
POP
Dewpoint
Humidity
Wind Direction
Wind Speed
Visibility
POP = Probability of Precipitation. ** Indicates missing data/values from model statistics.

24 Hour Forecast

Tonight - Rain showers likely early, then snow showers likely with a chance of rain showers late this evening. Lake effect snow after midnight. Snow accumulation in the most persistent snows ranging from 1 to 3 inches across the lower elevations to 3 to 5 inches on the tug hill. Very windy with lows ranging from the lower 20s on the tug hill to the upper 20s across the lower elevations. West winds 25 to 35 mph with gusts up to 45 mph, diminishing to 20 to 30 mph. Chance of precipitation near 100%.
Tuesday - Lake effect snow. Additional accumulation 2 to 4 inches in the most persistent snows. Much colder with near steady temperatures ranging from the lower 20s on the tug hill to around 30 across the lower elevations. West winds 10 to 15 mph with gusts up to 35 mph in the morning. Chance of snow near 100%.

48 Hour Forecast API Feed


Mon, Dec 6
4:00 pm

Mon, Dec 6
5:00 pm

Mon, Dec 6
6:00 pm

Mon, Dec 6
7:00 pm

Mon, Dec 6
8:00 pm

Mon, Dec 6
9:00 pm

Mon, Dec 6
10:00 pm

Mon, Dec 6
11:00 pm

Tue, Dec 7
Midnight

Tue, Dec 7
1:00 am

Tue, Dec 7
2:00 am

Tue, Dec 7
3:00 am

Tue, Dec 7
4:00 am

Tue, Dec 7
5:00 am

Tue, Dec 7
6:00 am

Tue, Dec 7
7:00 am

Tue, Dec 7
8:00 am

Tue, Dec 7
9:00 am

Tue, Dec 7
10:00 am

Tue, Dec 7
11:00 am

Tue, Dec 7
Noon

Tue, Dec 7
1:00 pm

Tue, Dec 7
2:00 pm

Tue, Dec 7
3:00 pm

Tue, Dec 7
4:00 pm

Tue, Dec 7
5:00 pm

Tue, Dec 7
6:00 pm

Tue, Dec 7
7:00 pm

Tue, Dec 7
8:00 pm

Tue, Dec 7
9:00 pm

Tue, Dec 7
10:00 pm

Tue, Dec 7
11:00 pm

Wed, Dec 8
Midnight

Wed, Dec 8
1:00 am

Wed, Dec 8
2:00 am

Wed, Dec 8
3:00 am

Wed, Dec 8
4:00 am

Wed, Dec 8
5:00 am

Wed, Dec 8
6:00 am

Wed, Dec 8
7:00 am

Wed, Dec 8
8:00 am

Wed, Dec 8
9:00 am

Wed, Dec 8
10:00 am

Wed, Dec 8
11:00 am

Wed, Dec 8
Noon

Wed, Dec 8
1:00 pm

Wed, Dec 8
2:00 pm

Wed, Dec 8
3:00 pm
Light RainModerate RainLight RainPatchy Sleet PossibleModerate Or Heavy SleetOvercastOvercastBlizzardCloudyBlizzardOvercastBlowing SnowCloudyBlizzardOvercastBlowing SnowOvercastModerate Or Heavy Snow ShowersModerate Or Heavy Snow ShowersHeavy SnowModerate Or Heavy Snow ShowersModerate Or Heavy Snow ShowersHeavy SnowHeavy SnowBlizzardBlizzardModerate Or Heavy Snow ShowersModerate Or Heavy Snow ShowersPatchy Heavy SnowPartly CloudyCloudyPartly CloudyPartly CloudyPartly CloudyOvercastOvercastOvercastModerate SnowOvercastModerate SnowOvercastHeavy SnowOvercastHeavy SnowOvercastModerate Or Heavy Snow ShowersOvercastModerate Or Heavy Snow Showers
Light rain Moderate rain Light rain Patchy sleet possible Moderate sleet Overcast Overcast Blizzard Cloudy Blizzard Overcast Blowing snow Cloudy Blizzard Overcast Blowing snow Overcast Moderate snow showers Moderate snow showers Heavy snow Moderate snow showers Moderate snow showers Heavy snow Heavy snow Blizzard Blizzard Moderate snow showers Moderate snow showers Patchy heavy snow Partly cloudy Cloudy Partly cloudy Partly cloudy Partly cloudy Overcast Overcast Overcast Moderate snow Overcast Moderate snow Overcast Heavy snow Overcast Heavy snow Overcast Moderate snow showers Overcast Moderate snow showers
44°F
7°C
45°F
7°C
42°F
6°C
42°F
5°C
40°F
5°C
39°F
4°C
38°F
3°C
38°F
3°C
37°F
3°C
37°F
3°C
36°F
2°C
35°F
2°C
35°F
2°C
35°F
2°C
35°F
1°C
34°F
1°C
32°F
0°C
30°F
-1°C
30°F
-1°C
30°F
-1°C
29°F
-2°C
29°F
-2°C
30°F
-1°C
31°F
-0°C
33°F
0°C
33°F
1°C
33°F
0°C
32°F
0°C
31°F
-0°C
31°F
-1°C
31°F
-1°C
30°F
-1°C
30°F
-1°C
29°F
-1°C
29°F
-1°C
30°F
-1°C
29°F
-2°C
28°F
-3°C
27°F
-3°C
27°F
-3°C
28°F
-3°C
28°F
-2°C
29°F
-2°C
30°F
-1°C
31°F
-1°C
32°F
0°C
32°F
0°C
33°F
0°C
40°F
5°C
38°F
3°C
37°F
3°C
29°F
-2°C
27°F
-3°C
27°F
-3°C
28°F
-3°C
28°F
-2°C
26°F
-4°C
24°F
-5°C
22°F
-5°C
23°F
-5°C
22°F
-6°C
22°F
-6°C
21°F
-6°C
20°F
-7°C
22°F
-6°C
24°F
-4°C
23°F
-5°C
23°F
-5°C
24°F
-5°C
26°F
-4°C
26°F
-3°C
26°F
-3°C
22°F
-5°C
19°F
-7°C
19°F
-8°C
18°F
-8°C
18°F
-8°C
17°F
-8°C
18°F
-8°C
17°F
-8°C
17°F
-8°C
17°F
-8°C
17°F
-8°C
17°F
-8°C
20°F
-6°C
25°F
-4°C
25°F
-4°C
25°F
-4°C
26°F
-3°C
26°F
-3°C
27°F
-3°C
27°F
-3°C
27°F
-3°C
27°F
-3°C
28°F
-2°C
28°F
-2°C
29.53 in
1000 mb
29.56 in
1001 mb
29.62 in
1003 mb
29.65 in
1004 mb
29.68 in
1005 mb
29.71 in
1006 mb
29.74 in
1007 mb
29.77 in
1008 mb
29.83 in
1010 mb
29.85 in
1011 mb
29.88 in
1012 mb
29.94 in
1014 mb
29.97 in
1015 mb
30 in
1016 mb
30.03 in
1017 mb
30.06 in
1018 mb
30.09 in
1019 mb
30.12 in
1020 mb
30.15 in
1021 mb
30.18 in
1022 mb
30.18 in
1022 mb
30.18 in
1022 mb
30.18 in
1022 mb
30.15 in
1021 mb
30.18 in
1022 mb
30.18 in
1022 mb
30.18 in
1022 mb
30.21 in
1023 mb
30.21 in
1023 mb
30.21 in
1023 mb
30.21 in
1023 mb
30.21 in
1023 mb
30.18 in
1022 mb
30.18 in
1022 mb
30.15 in
1021 mb
30.15 in
1021 mb
30.15 in
1021 mb
30.15 in
1021 mb
30.12 in
1020 mb
30.12 in
1020 mb
30.12 in
1020 mb
30.09 in
1019 mb
30.09 in
1019 mb
30.06 in
1018 mb
30.03 in
1017 mb
30 in
1016 mb
30 in
1016 mb
29.97 in
1015 mb
86%76%82%60%59%61%66%67%62%58%57%60%59%59%56%56%66%78%77%76%79%86%87%80%65%56%55%56%56%56%57%58%58%60%59%59%69%90%92%93%93%93%92%87%84%81%84%84%
WWWWSWWSWWSWWSWWWWWNWWNWWNWWNWWNWWNWWNWNWNWWNWWNWWWWWWSWWSWWSWWSWWSWWSWWSWSWSWSWSWSWSWSSSESSESSESSESSESSSWSWWSW
34 mph
55 km/h
25 mph
40 km/h
32 mph
51 km/h
32 mph
51 km/h
33 mph
54 km/h
35 mph
57 km/h
37 mph
60 km/h
37 mph
60 km/h
38 mph
60 km/h
38 mph
60 km/h
36 mph
57 km/h
33 mph
53 km/h
31 mph
49 km/h
29 mph
46 km/h
28 mph
45 km/h
27 mph
43 km/h
21 mph
34 km/h
15 mph
23 km/h
11 mph
18 km/h
10 mph
16 km/h
9 mph
14 km/h
9 mph
14 km/h
11 mph
18 km/h
15 mph
24 km/h
18 mph
28 km/h
18 mph
29 km/h
16 mph
26 km/h
16 mph
26 km/h
15 mph
24 km/h
14 mph
22 km/h
13 mph
21 km/h
13 mph
20 km/h
12 mph
19 km/h
13 mph
20 km/h
12 mph
20 km/h
11 mph
18 km/h
11 mph
18 km/h
9 mph
14 km/h
6 mph
10 km/h
7 mph
11 km/h
7 mph
11 km/h
7 mph
12 km/h
7 mph
11 km/h
7 mph
12 km/h
7 mph
12 km/h
8 mph
13 km/h
8 mph
13 km/h
8 mph
13 km/h
60%94%92%89%83%0%0%95%0%78%0%0%0%80%0%0%0%0%0%0%0%0%0%0%0%0%0%0%0%0%0%0%0%0%0%0%0%0%0%0%0%0%0%0%0%0%0%0%
6 mi
9 km
4 mi
7 km
6 mi
9 km
6 mi
9 km
4 mi
6 km
6 mi
10 km
6 mi
10 km
0 mi
0 km
6 mi
10 km
0 mi
0 km
6 mi
10 km
1 mi
2 km
6 mi
10 km
0 mi
0 km
6 mi
10 km
1 mi
2 km
6 mi
10 km
4 mi
7 km
4 mi
7 km
1 mi
2 km
4 mi
7 km
4 mi
7 km
1 mi
2 km
1 mi
2 km
0 mi
0 km
0 mi
0 km
4 mi
7 km
4 mi
7 km
3 mi
5 km
6 mi
10 km
6 mi
10 km
6 mi
10 km
6 mi
10 km
6 mi
10 km
6 mi
10 km
6 mi
10 km
6 mi
10 km
3 mi
5 km
6 mi
10 km
3 mi
5 km
6 mi
10 km
1 mi
2 km
6 mi
10 km
1 mi
2 km
6 mi
10 km
4 mi
7 km
6 mi
10 km
4 mi
7 km

Day/Time
Weather
Condition
Temperature
Dew Point
Pressure
Humidity
Wind Direction
Wind Speed
Prob Precip %
Visibility
Prob Precip % = Probability of Precipitation.